This is the latest recevied weather packets stored in our database for station/object WA1NHP. If no packets are shown the sender has not sent any weather packets the latest 1 day(s).
| Time | Temp. | Humidity | Pressure | Rain* | Wind** | Luminosity | Snow |
|---|---|---|---|---|---|---|---|
| 1778048045 | 14.44° C | 78% | 1023.9 hPa | 0 mm | 0.89 m/s, 161° | 0 W/m² | - |
| 1778047444 | 14.44° C | 78% | 1023.9 hPa | 0 mm | 1.79 m/s, 196° | 0 W/m² | - |
| 1778046844 | 15° C | 77% | 1023.9 hPa | 0 mm | 1.79 m/s, 211° | 0 W/m² | - |
| 1778046244 | 15° C | 77% | 1023.9 hPa | 0 mm | 1.34 m/s, 208° | 0 W/m² | - |
| 1778045644 | 15° C | 77% | 1023.9 hPa | 0 mm | 0.89 m/s, 181° | 0 W/m² | - |
| 1778045044 | 15° C | 76% | 1023.9 hPa | 0 mm | 0.89 m/s, 194° | 0 W/m² | - |
| 1778044444 | 15° C | 76% | 1023.9 hPa | 0 mm | 2.68 m/s, 200° | 0 W/m² | - |
| 1778043844 | 15.56° C | 75% | 1023.9 hPa | 0 mm | 2.24 m/s, 190° | 0 W/m² | - |
| 1778043244 | 15.56° C | 75% | 1023.9 hPa | 0 mm | 2.68 m/s, 192° | 0 W/m² | - |
| 1778042644 | 15.56° C | 75% | 1023.9 hPa | 0 mm | 2.24 m/s, 196° | 0 W/m² | - |
| 1778042043 | 15.56° C | 75% | 1023.9 hPa | 0 mm | 1.34 m/s, 226° | 0 W/m² | - |
| 1778041444 | 15.56° C | 74% | 1023.9 hPa | 0 mm | 3.13 m/s, 197° | 0 W/m² | - |
| 1778040844 | 15.56° C | 74% | 1023.9 hPa | 0 mm | 2.68 m/s, 194° | 0 W/m² | - |
| 1778040244 | 15.56° C | 74% | 1023.9 hPa | 0 mm | 2.68 m/s, 197° | 0 W/m² | - |
| 1778039644 | 15.56° C | 74% | 1023.9 hPa | 0 mm | 1.79 m/s, 206° | 0 W/m² | - |
| 1778039044 | 15.56° C | 75% | 1023.9 hPa | 0 mm | 1.34 m/s, 203° | 0 W/m² | - |
| 1778038444 | 15.56° C | 74% | 1023.9 hPa | 0 mm | 2.24 m/s, 206° | 0 W/m² | - |
| 1778037844 | 15.56° C | 74% | 1023.9 hPa | 0 mm | 2.24 m/s, 188° | 0 W/m² | - |
| 1778037243 | 16.11° C | 74% | 1023.9 hPa | 0 mm | 1.79 m/s, 176° | 0 W/m² | - |
| 1778036643 | 16.11° C | 74% | 1023.9 hPa | 0 mm | 0.89 m/s, 198° | 0 W/m² | - |
| 1778036045 | 16.11° C | 75% | 1023.9 hPa | 0 mm | 0.45 m/s, 179° | 0 W/m² | - |
| 1778035444 | 16.11° C | 75% | 1023.9 hPa | 0 mm | 1.34 m/s, 161° | 0 W/m² | - |
| 1778034844 | 16.11° C | 75% | 1023.9 hPa | 0 mm | 1.34 m/s, 176° | 0 W/m² | - |
| 1778034244 | 16.11° C | 75% | 1023.9 hPa | 0 mm | 0 m/s | 0 W/m² | - |
| 1778033644 | 16.11° C | 75% | 1023.9 hPa | 0 mm | 1.34 m/s, 208° | 0 W/m² | - |
* Rain latest hour (hover to see other rain measurements)
** Current wind speed in m/s (hover to see current wind gust speed)